STARLINK-11598, 63113

Orbit data source: Space-Track

STARLINK-11598, 63113 is a payload satellite owned by SpaceX/Seattle (US) in LEO that was launched on Thu, 27 Feb 2025 UTC via an FALCON 9 launch vehicle from the Air Force Eastern Test Range (AFETR). Payload-class satellites include a variety of spacecraft equipped with specific instruments for various scientific and technological missions. These include communications satellites like Starlink; space stations such as the ISS; scientific satellites like the Hubble; Earth observation satellites from companies like Planet Labs, Umbra, and HawkEye 360; GPS; miniature CubeSats for education and research; and military/defense satellites.

Loading next visibility...
Identifier
63113, 2025-039K
Orbit
LEO
Country
Flag of USUS
Related business
Manufacturer
SpaceX/Seattle
Mission
Operational Commercial Communications
Bus & Motor
STARLINK V2MD, Unknown motor
Mass
960 kg wet, ~910 kg dry
Launch date (UTC)
2025-02-27 (1 year ago)
Launch vehicle
FALCON 9
Launch site
Air Force Eastern Test Range (AFETR)
Object type
Payload
Rocket body
Debris
Shape & HBR
Box + 2 Pan, 18.1 m
Radar Cross Section
36.964 m², Large (>1 m²)

Expand to show TLE details & history
Last TLE update: 1 day ago

TLE from 1 day ago
0 STARLINK-11598
1 63113U 25039K   26124.38165441  .00349349  00000-0  25954-2 0  9999
2 63113  42.9991 261.2135 0001960 249.7831 110.2826 15.71003162 68370
Epoch: 2026-05-04T09:09Z
TLE epoch observation values (Epoch: 2026-05-04T09:09:34.941Z)
Latitude
Longitude
-98.45375°
Altitude
356.257 km
Speed
7.697 km/s
True Right ascension
17h 24m 51s
True Declination
0° 00' 00"
Sunlit
Object was in full shadow at epoch
Visualization orbit readout
Latitude
Unknown
Longitude
Unknown
Altitude
Unknown
Speed
Unknown
Apparent Right ascension
Unknown
Apparent Declination
Unknown
Sunlit
N/A
Visualization observer readout
Local Sidereal Time
18:16:46
Azimuth
Unknown
Elevation
Unknown
Doppler factor
Unknown
Orbital elements
Apogee altitude
359.331 km
Perigee altitude
356.69 km
Semi-major axis
6,736.148 km
Eccentricity
0.0002
Inclination
42.9991°
RAAN
261.2135°
Arg. of periapsis
249.7831°
True anomaly
110.30367°
Mean anomaly
110.2826°
Eccentric anomaly
110.29313°
Mean motion
3.92578 °/min
Orbital period
91.7 mins
BSTAR
0.0025954
Loading maneuver chart data...
Computing Atmospheric mass density...
Loading historical data...
Loading historical data...
Loading historical data...
Loading historical data...
Loading historical data...
Loading historical data...
Loading historical data...

Documentation

Showing up to 5 results
|